Weather History for Show Low, AZ

Change the Weather History Date:

Tuesday, November 20, 2012

  Actual Average Record
Temperature  
Mean Temperature 44 °F -  
Max Temperature 62 °F 52 °F 68 °F (1966)
Min Temperature 26 °F 31 °F 13 °F (1969)
Degree Days  
Heating Degree Days 21    
Moisture  
Dew Point 19 °F    
Average Humidity 41    
Maximum Humidity 80    
Minimum Humidity 15    
Precipitation  
Precipitation 0.00 in - - ()
Sea Level Pressure  
Sea Level Pressure 30.29 in    
Wind  
Wind Speed 3 mph (SSW)    
Max Wind Speed 12 mph    
Max Gust Speed -    
Visibility 10 miles    
Events      
Averages and records for this station are not official NWS values.
T = Trace of Precipitation, MM = Missing Value Source: NWS Daily Summary

Daily Weather History Graph

Daily Weather History Graph

Search for Another Location

Airport:

Trip Planner

Search our weather history database for the weather conditions in past years. The results will help you decide how hot, cold, wet, or windy it might be!

Date:

Astronomy

Nov. 20, 2012 Rise Set
Actual Time 6:58 AM MST 5:12 PM MST
Civil Twilight 6:31 AM MST 5:39 PM MST
Nautical Twilight 6:00 AM MST 6:10 PM MST
Astronomical Twilight 5:30 AM MST 6:40 PM MST
Moon 12:43 PM MST (11/20) No Moon Set
Length of Visible Light 11h 08m
Length of Day
10h 14m
First Quarter, 52% of the Moon is Illuminated
Nov 20
First Quarter
Nov 28
Full
Dec 6
Last Quarter
Dec 13
New
Dec 19
First Quarter

Hourly Weather History & Observations

Time (MST) Temp. Windchill Dew Point Humidity Pressure Visibility Wind Dir Wind Speed Gust Speed Precip Events Conditions
12:15 AM 33.8 °F 30.8 °F 24.8 °F 70% 30.36 in 10.0 mi South 3.5 mph - N/A   Clear
12:35 AM 33.8 °F 30.8 °F 24.8 °F 70% 30.36 in 10.0 mi South 3.5 mph - N/A   Clear
12:55 AM 32.0 °F - 23.0 °F 69% 30.36 in 10.0 mi Calm Calm - N/A   Clear
1:15 AM 32.0 °F 27.5 °F 23.0 °F 69% 30.35 in 10.0 mi South 4.6 mph - N/A   Clear
1:35 AM 32.0 °F 27.5 °F 24.8 °F 75% 30.35 in 10.0 mi South 4.6 mph - N/A   Clear
5:15 AM 28.4 °F - 23.0 °F 80% 30.34 in 10.0 mi Calm Calm - N/A   Clear
5:35 AM 28.4 °F 24.6 °F 23.0 °F 80% 30.34 in 10.0 mi South 3.5 mph - N/A   Clear
5:55 AM 28.4 °F - 23.0 °F 80% 30.35 in 9.0 mi Calm Calm - N/A   Clear
6:15 AM 26.6 °F - 21.2 °F 80% 30.35 in 10.0 mi Calm Calm - N/A   Clear
6:35 AM 28.4 °F - 23.0 °F 80% 30.35 in 9.0 mi Calm Calm - N/A   Clear
6:55 AM 28.4 °F - 21.2 °F 74% 30.35 in 10.0 mi Calm Calm - N/A   Clear
7:15 AM 28.4 °F - 21.2 °F 74% 30.35 in 10.0 mi Calm Calm - N/A   Clear
7:35 AM 26.6 °F - 21.2 °F 80% 30.35 in 9.0 mi Calm Calm - N/A   Clear
7:55 AM 32.0 °F - 24.8 °F 75% 30.36 in 7.0 mi Calm Calm - N/A   Clear
9:15 AM 44.6 °F - 24.8 °F 46% 30.36 in 10.0 mi Calm Calm - N/A   Clear
9:35 AM 48.2 °F - 26.6 °F 43% 30.36 in 10.0 mi Calm Calm - N/A   Clear
9:55 AM 51.8 °F - 24.8 °F 35% 30.36 in 10.0 mi Calm Calm - N/A   Clear
10:15 AM 53.6 °F - 23.0 °F 30% 30.36 in 10.0 mi North 4.6 mph - N/A   Clear
10:35 AM 55.4 °F - 23.0 °F 29% 30.35 in 10.0 mi NNW 4.6 mph - N/A   Clear
10:55 AM 55.4 °F - 19.4 °F 25% 30.35 in 10.0 mi Calm Calm - N/A   Clear
11:15 AM 55.4 °F - 19.4 °F 25% 30.34 in 10.0 mi Calm Calm - N/A   Clear
11:35 AM 57.2 °F - 19.4 °F 23% 30.32 in 10.0 mi NNE 3.5 mph - N/A   Clear
11:55 AM 57.2 °F - 17.6 °F 21% 30.31 in 10.0 mi Calm Calm - N/A   Clear
12:15 PM 59.0 °F - 17.6 °F 20% 30.30 in 10.0 mi SW 3.5 mph - N/A   Clear
12:35 PM 59.0 °F - 17.6 °F 20% 30.29 in 10.0 mi Calm Calm - N/A   Clear
12:55 PM 59.0 °F - 15.8 °F 19% 30.28 in 10.0 mi NNE 4.6 mph - N/A   Clear
1:15 PM 59.0 °F - 15.8 °F 19% 30.27 in 10.0 mi Calm Calm - N/A   Clear
1:35 PM 60.8 °F - 15.8 °F 17% 30.26 in 10.0 mi Calm Calm - N/A   Clear
1:55 PM 60.8 °F - 15.8 °F 17% 30.25 in 10.0 mi Calm Calm - N/A   Clear
2:15 PM 62.6 °F - 15.8 °F 16% 30.24 in 10.0 mi SSE 3.5 mph - N/A   Clear
2:35 PM 62.6 °F - 14.0 °F 15% 30.24 in 10.0 mi SW 8.1 mph - N/A   Clear
2:55 PM 62.6 °F - 14.0 °F 15% 30.23 in 10.0 mi Calm Calm - N/A   Clear
3:15 PM 62.6 °F - 14.0 °F 15% 30.23 in 10.0 mi Calm Calm - N/A   Clear
3:35 PM 62.6 °F - 15.8 °F 16% 30.23 in 10.0 mi West 4.6 mph - N/A   Clear
3:55 PM 60.8 °F - 17.6 °F 19% 30.23 in 10.0 mi WSW 8.1 mph - N/A   Clear
4:15 PM 59.0 °F - 17.6 °F 20% 30.24 in 8.0 mi SW 6.9 mph - N/A   Clear
4:35 PM 59.0 °F - 17.6 °F 20% 30.24 in 9.0 mi SW 6.9 mph - N/A   Clear
4:55 PM 55.4 °F - 19.4 °F 25% 30.24 in 8.0 mi WSW 5.8 mph - N/A   Clear
5:15 PM 53.6 °F - 19.4 °F 26% 30.25 in 9.0 mi WSW 4.6 mph - N/A   Clear
5:35 PM 53.6 °F - 17.6 °F 24% 30.25 in 10.0 mi SW 3.5 mph - N/A   Clear
5:55 PM 51.8 °F - 17.6 °F 26% 30.25 in 10.0 mi SW 3.5 mph - N/A   Clear
6:15 PM 44.6 °F 42.2 °F 17.6 °F 34% 30.26 in 10.0 mi SSE 4.6 mph - N/A   Clear
6:35 PM 44.6 °F 40.7 °F 17.6 °F 34% 30.26 in 10.0 mi SSE 6.9 mph - N/A   Clear
6:55 PM 42.8 °F 40.1 °F 17.6 °F 36% 30.27 in 10.0 mi South 4.6 mph - N/A   Clear
7:15 PM 41.0 °F - 17.6 °F 39% 30.27 in 10.0 mi Calm Calm - N/A   Clear
7:35 PM 42.8 °F - 17.6 °F 36% 30.27 in 10.0 mi Calm Calm - N/A   Clear
7:55 PM 42.8 °F - 17.6 °F 36% 30.27 in 10.0 mi Calm Calm - N/A   Clear
8:15 PM 42.8 °F - 17.6 °F 36% 30.27 in 10.0 mi Calm Calm - N/A   Clear
8:35 PM 41.0 °F - 17.6 °F 39% 30.27 in 10.0 mi Calm Calm - N/A   Clear
8:55 PM 41.0 °F - 17.6 °F 39% 30.27 in 10.0 mi Calm Calm - N/A   Clear
9:15 PM 39.2 °F 37.0 °F 19.4 °F 45% 30.27 in 10.0 mi SSW 3.5 mph - N/A   Clear
9:35 PM 39.2 °F 35.9 °F 19.4 °F 45% 30.27 in 10.0 mi South 4.6 mph - N/A   Clear
9:55 PM 39.2 °F 32.5 °F 19.4 °F 45% 30.27 in 9.0 mi South 10.4 mph - N/A   Clear
10:15 PM 41.0 °F 34.7 °F 19.4 °F 42% 30.26 in 10.0 mi South 10.4 mph - N/A   Clear
10:35 PM 41.0 °F 34.7 °F 17.6 °F 39% 30.26 in 10.0 mi South 10.4 mph - N/A   Clear
10:55 PM 41.0 °F 34.7 °F 17.6 °F 39% 30.26 in 9.0 mi South 10.4 mph - N/A   Clear
11:15 PM 41.0 °F 34.3 °F 17.6 °F 39% 30.26 in 10.0 mi South 11.5 mph - N/A   Clear
11:35 PM 39.2 °F 32.0 °F 17.6 °F 42% 30.25 in 10.0 mi South 11.5 mph - N/A   Clear
11:55 PM 39.2 °F 32.5 °F 19.4 °F 45% 30.25 in 10.0 mi South 10.4 mph - N/A   Clear